Location: Spring Creek
(38.2870°N, 100.2160°W)
Time: 04:07:10
(UTC+00:00)

Meteor 2-15 - Pass Details

Date: 05 October 2021
Orbit: 937 x 955 km, 82.5° (Epoch: 26 October)

Event Time Altitude Azimuth Distance (km) Brightness Sun altitude
Exits shadow 08:36:52 11° 7° (N) 2,615 7.1 -45.8°
Drops below altitude 10° 08:37:00 10° 7° (N) 2,659 7.1 -45.8°
Sets 08:39:33 0° 8° (N) 3,632 8.0 -45.4°
